Location: Lake Runnemede Observatory
(43.4843°N, 72.3851°W)
Time: 07:04:54
(UTC-04:00)

Amateur Radio Satellites - All Passes

Search period start: 26 May 2017 06:34
Search period end: 27 May 2017 06:34
Location: Lake Runnemede Observatory, 43.4843°N, 72.3851°W

Satellite Date Start Highest point End Downlink Frequencies (MHz)
Time Altitude Azimuth
XW-2D 26 May 06:41:06 06:44:49 44° 98° (E) 06:48:30 145.860 - 145.880
XW-2B 26 May 06:48:59 06:52:46 53° 100° (E) 06:56:32 145.730 - 145.750
DOVE 4 26 May 06:51:37 06:55:46 79° 286° (WNW) 07:00:01 437.250
RS-15 26 May 07:01:21 07:11:22 27° 355° (N) 07:21:16 29.354- 29.394
XW-2F 26 May 07:02:00 07:05:52 75° 101° (ESE) 07:09:41 145.980 - 146.000
XW-2C 26 May 07:02:33 07:06:26 81° 102° (ESE) 07:10:17 145.795 - 145.815
NUDT-PHONESAT 26 May 07:03:00 07:06:47 61° 101° (E) 07:10:30 437.300
AO-7 26 May 07:03:40 07:09:02 19° 313° (NW) 07:14:23 .
KAITUO 1B 26 May 07:10:39 07:14:28 79° 100° (E) 07:18:15 145.475/437.950
BEESAT 2 26 May 07:11:19 07:15:10 46° 309° (NW) 07:19:04 435.950
SO-50 26 May 07:14:39 07:19:10 68° 54° (NE) 07:23:40 436.795
HO-68 26 May 07:24:41 07:30:49 29° 94° (E) 07:36:54 435.675
CUTE 1.7 + AOD 2 26 May 07:26:34 07:29:50 21° 93° (E) 07:33:04 437.475
STRAND 1 26 May 07:32:42 07:37:47 75° 257° (WSW) 07:42:55 437.568
BEESAT 3 26 May 07:35:00 07:37:20 15° 322° (NW) 07:39:41 437.485
LilacSat-2 26 May 07:40:18 07:43:51 34° 289° (WNW) 07:47:22 437.200
XW-2A 26 May 07:42:58 07:45:49 24° 96° (E) 07:48:40 145.665 - 145.685
CUTE-I 26 May 07:55:34 08:00:42 48° 290° (WNW) 08:05:49 437.470
CUBEBUG 2 26 May 07:57:57 08:01:42 25° 94° (E) 08:05:31 437.445
M-CUBED/EXP-1 PRIME 26 May 07:58:51 08:03:04 66° 69° (ENE) 08:06:59 437.505
UWE-3 26 May 08:09:47 08:13:11 20° 93° (E) 08:16:37 435.000/436.395/437.385
SEEDS 26 May 08:16:20 08:20:25 47° 99° (E) 08:24:28 437.485
XW-2D 26 May 08:16:24 08:18:38 15° 295° (WNW) 08:20:52 145.860 - 145.880
XW-2B 26 May 08:24:43 08:26:31 13° 296° (WNW) 08:28:17 145.730 - 145.750
NUDT-PHONESAT 26 May 08:39:05 08:40:09 11° 297° (WNW) 08:41:13 437.300
TIGRISAT 26 May 08:40:55 08:42:37 12° 60° (ENE) 08:44:20 435.000
Oscar 11 26 May 08:44:58 08:48:01 18° 92° (E) 08:51:03 .
SO-50 26 May 08:56:37 08:59:05 15° 251° (WSW) 09:01:32 436.795
NO-84 26 May 09:01:17 09:05:35 58° 136° (SE) 09:09:46 435.350 FM
CUTE 1.7 + AOD 2 26 May 09:01:51 09:05:45 35° 290° (WNW) 09:09:37 437.475
AO-73 26 May 09:09:59 09:14:21 43° 98° (E) 09:18:42 145.935
UNISAT 6 26 May 09:10:20 09:13:52 26° 67° (ENE) 09:17:28 437.425
HO-68 26 May 09:11:52 09:18:53 57° 293° (WNW) 09:25:53 435.675
XW-2A 26 May 09:15:50 09:18:27 20° 292° (WNW) 09:21:03 145.665 - 145.685
RS-15 26 May 09:17:31 09:28:43 37° 29° (NNE) 09:39:29 29.354- 29.394
AAUSAT CUBESAT 2 26 May 09:17:36 09:21:45 75° 284° (WNW) 09:25:51 437.432
ZACube-1 26 May 09:23:33 09:28:06 67° 101° (E) 09:32:40 437.345
PRISM 26 May 09:26:34 09:30:33 49° 72° (ENE) 09:34:34 437.425
CUBEBUG 2 26 May 09:34:12 09:38:22 36° 290° (WNW) 09:42:37 437.445
M-CUBED/EXP-1 PRIME 26 May 09:36:20 09:37:46 11° 263° (W) 09:39:09 437.505
DELFI C3 26 May 09:41:47 09:44:40 19° 93° (E) 09:47:31 145.870
UWE-3 26 May 09:45:27 09:49:48 43° 288° (WNW) 09:54:11 435.000/436.395/437.385
FO-29 26 May 09:51:45 09:56:53 70° 73° (ENE) 10:02:11 435.910
EO-88 26 May 09:52:30 09:55:02 17° 93° (E) 09:57:33 145.990 - 145.960
SEEDS 26 May 09:53:02 09:55:45 17° 296° (WNW) 09:58:26 437.485
TIGRISAT 26 May 10:14:26 10:18:41 72° 258° (WSW) 10:23:03 435.000
Oscar 11 26 May 10:20:13 10:24:20 42° 289° (WNW) 10:28:26 .
NANOSAT C BR1 26 May 10:32:19 10:34:11 13° 61° (ENE) 10:36:02 145.865
POLYITAN 1 26 May 10:35:45 10:38:12 15° 63° (ENE) 10:40:40 437.675
NO-84 26 May 10:39:31 10:43:25 32° 334° (NNW) 10:47:10 435.350 FM
DUCHIFAT 1 26 May 10:42:44 10:45:03 15° 63° (ENE) 10:47:23 145.980
QB50P2 26 May 10:43:42 10:46:45 20° 65° (ENE) 10:49:48 145.880/145.840
UNISAT 6 26 May 10:46:43 10:50:28 30° 264° (W) 10:54:19 437.425
AO-73 26 May 10:46:54 10:50:16 21° 295° (WNW) 10:53:39 145.935
ZACube-1 26 May 11:01:24 11:03:50 14° 298° (WNW) 11:06:17 437.345
HO-68 26 May 11:02:20 11:05:07 13° 313° (NW) 11:07:53 435.675
PRISM 26 May 11:03:48 11:06:06 14° 268° (W) 11:08:25 437.425
AIST 2D 26 May 11:10:00 11:13:28 63° 75° (ENE) 11:17:00 435.315
DELFI C3 26 May 11:15:59 11:19:31 32° 290° (WNW) 11:23:01 145.870
EO-79 26 May 11:19:54 11:23:52 43° 71° (ENE) 11:27:50 145.935-145.965
EO-88 26 May 11:25:29 11:28:48 32° 289° (WNW) 11:32:05 145.990 - 145.960
RS-15 26 May 11:30:39 11:42:59 90° 236° (SW) 11:54:38 29.354- 29.394
FO-29 26 May 11:40:04 11:42:40 14° 272° (W) 11:45:19 435.910
YUBILEINY 26 May 11:46:02 11:54:23 43° 72° (ENE) 12:02:39 435.215
NANOSAT C BR1 26 May 12:05:13 12:09:20 65° 258° (WSW) 12:13:32 145.865
ESTCUBE 1 26 May 12:07:14 12:11:40 52° 100° (E) 12:16:02 437.505/2401.250
POLYITAN 1 26 May 12:09:28 12:13:33 52° 260° (W) 12:17:41 437.675
LO-87 26 May 12:09:39 12:13:12 70° 284° (WNW) 12:16:44 145.935 - 145.965
DUCHIFAT 1 26 May 12:16:12 12:20:17 54° 260° (W) 12:24:24 145.980
QB50P2 26 May 12:18:21 12:22:16 38° 262° (W) 12:26:14 145.880/145.840
NO-84 26 May 12:19:20 12:22:00 16° 354° (N) 12:24:35 435.350 FM
AO-7 26 May 12:33:32 12:34:38 10° 36° (NE) 12:35:45 .
BEESAT 3 26 May 12:35:24 12:36:36 11° 34° (NE) 12:37:48 437.485
BUGSAT 1 26 May 12:35:50 12:39:49 76° 75° (ENE) 12:43:50 437.445
Gurwin Techsat 1B 26 May 12:40:40 12:44:43 23° 63° (ENE) 12:48:47 435.225
AO-85 26 May 12:52:27 12:56:07 33° 49° (NE) 12:59:56 145.980
EO-79 26 May 12:57:04 12:59:49 17° 268° (W) 13:02:36 145.935-145.965
SPROUT 26 May 13:01:24 13:05:35 52° 100° (E) 13:09:46 437.525
Oscar 19 26 May 13:04:23 13:09:28 57° 71° (ENE) 13:14:34 437.125/150
VELOX 1 26 May 13:04:36 13:08:55 54° 101° (E) 13:13:12 145.980
50 SAT 26 May 13:26:01 13:29:19 49° 100° (E) 13:32:37 437.505
UKube-1 26 May 13:34:31 13:38:12 27° 96° (E) 13:41:53 .
O/OREOS (USA 219) 26 May 13:37:57 13:42:23 52° 63° (ENE) 13:46:46 437.305
DX 1 26 May 13:41:14 13:45:26 47° 100° (E) 13:49:36 434.975-435.025
YUBILEINY 26 May 13:42:58 13:51:10 45° 273° (W) 13:59:22 435.215
RS-15 26 May 13:44:49 13:53:43 25° 260° (W) 14:02:21 29.354- 29.394
ESTCUBE 1 26 May 13:45:06 13:48:03 17° 297° (WNW) 13:50:59 437.505/2401.250
BEESAT 2 26 May 13:50:39 13:53:40 20° 42° (NE) 13:56:40 435.950
NO-84 26 May 13:57:50 14:00:49 20° 15° (NNE) 14:03:37 435.350 FM
ITAMSAT 1 26 May 14:06:56 14:10:41 21° 61° (ENE) 14:14:26 435.822/435.867
BEESAT 3 26 May 14:10:58 14:14:59 65° 54° (NE) 14:18:56 437.485
AO-7 26 May 14:17:35 14:25:08 41° 59° (ENE) 14:32:44 .
Gurwin Techsat 1B 26 May 14:19:08 14:24:18 52° 260° (W) 14:29:30 435.225
AO-85 26 May 14:33:00 14:36:24 25° 245° (WSW) 14:39:55 145.980
BEESAT 26 May 14:38:24 14:40:32 13° 89° (E) 14:42:41 436.000
SPROUT 26 May 14:38:30 14:41:05 16° 297° (WNW) 14:43:39 437.525
VELOX 1 26 May 14:42:15 14:44:56 16° 298° (WNW) 14:47:36 145.980
Oscar 19 26 May 14:45:30 14:49:08 19° 268° (W) 14:52:47 437.125/150
50 SAT 26 May 15:00:57 15:01:45 11° 297° (WNW) 15:02:34 437.505
UKube-1 26 May 15:10:30 15:14:11 28° 293° (WNW) 15:17:51 .
DX 1 26 May 15:18:21 15:21:16 18° 297° (WNW) 15:24:09 434.975-435.025
O/OREOS (USA 219) 26 May 15:18:33 15:21:20 16° 260° (W) 15:24:05 437.305
BEESAT 2 26 May 15:27:45 15:31:44 53° 240° (WSW) 15:35:39 435.950
NO-84 26 May 15:35:13 15:39:02 67° 36° (NE) 15:42:29 435.350 FM
ITUPSAT 1 26 May 15:40:22 15:45:05 52° 101° (E) 15:49:46 437.325
ITAMSAT 1 26 May 15:44:39 15:49:43 56° 259° (W) 15:54:50 435.822/435.867
BEESAT 3 26 May 15:50:23 15:52:01 12° 251° (WSW) 15:53:38 437.485
MOZHAYETS 4 26 May 15:58:01 16:02:31 47° 99° (E) 16:06:59
AO-7 26 May 16:09:48 16:17:45 50° 259° (W) 16:25:47 .
BEESAT 26 May 16:14:02 16:18:50 73° 286° (WNW) 16:23:35 436.000
DOVE 4 26 May 16:23:12 16:25:13 13° 62° (ENE) 16:27:11 437.250
CUBESAT XI-V 26 May 16:43:54 16:47:49 26° 94° (E) 16:51:41 437.345
LilacSat-2 26 May 16:51:09 16:52:33 12° 63° (ENE) 16:53:57 437.200
KKS-1 26 May 16:52:50 16:56:32 25° 95° (E) 17:00:12 437.445
NO-84 26 May 17:14:02 17:16:03 14° 236° (SW) 17:17:59 435.350 FM
ITUPSAT 1 26 May 17:19:06 17:22:31 20° 297° (WNW) 17:25:56 437.325
XW-2D 26 May 17:23:35 17:26:45 25° 69° (ENE) 17:29:57 145.860 - 145.880
STARS 26 May 17:24:12 17:27:45 23° 95° (E) 17:31:17 437.465
XW-2B 26 May 17:31:20 17:34:40 30° 70° (ENE) 17:38:03 145.730 - 145.750
MOZHAYETS 4 26 May 17:35:58 17:39:20 20° 296° (WNW) 17:42:41
CUTE-I 26 May 17:38:56 17:43:53 42° 69° (ENE) 17:48:52 437.470
NUDT-PHONESAT 26 May 17:43:21 17:46:40 31° 71° (ENE) 17:50:01 437.300
XW-2F 26 May 17:43:44 17:47:18 40° 72° (ENE) 17:50:55 145.980 - 146.000
XW-2C 26 May 17:44:39 17:48:16 43° 73° (ENE) 17:51:55 145.795 - 145.815
KAITUO 1B 26 May 17:51:29 17:55:02 40° 72° (ENE) 17:58:37 145.475/437.950
HO-68 26 May 17:55:15 18:00:56 26° 57° (ENE) 18:06:38 435.675
DOVE 4 26 May 17:57:49 18:02:26 71° 259° (W) 18:06:48 437.250
PCSat 26 May 18:16:38 18:20:05 17° 105° (ESE) 18:23:32 145.827
XW-2A 26 May 18:17:29 18:18:12 11° 64° (ENE) 18:18:55 145.665 - 145.685
CUTE 1.7 + AOD 2 26 May 18:20:35 18:23:33 18° 65° (ENE) 18:26:31 437.475
CUBESAT XI-V 26 May 18:21:02 18:25:13 33° 292° (WNW) 18:29:21 437.345
LilacSat-2 26 May 18:22:31 18:26:18 60° 259° (W) 18:30:09 437.200
KKS-1 26 May 18:29:10 18:33:06 32° 292° (WNW) 18:37:01 437.445
CUBEBUG 2 26 May 18:57:41 19:00:51 21° 66° (ENE) 19:04:05 437.445
XW-2D 26 May 18:57:47 19:00:53 24° 265° (W) 19:04:02 145.860 - 145.880
STARS 26 May 19:00:11 19:04:08 34° 292° (WNW) 19:08:05 437.465
XW-2B 26 May 19:06:02 19:08:53 20° 266° (W) 19:11:46 145.730 - 145.750
UWE-3 26 May 19:08:30 19:11:18 18° 64° (ENE) 19:14:10 435.000/436.395/437.385
SEEDS 26 May 19:08:47 19:12:42 37° 71° (ENE) 19:16:39 437.485
NUDT-PHONESAT 26 May 19:18:03 19:20:38 18° 267° (W) 19:23:16 437.300
XW-2F 26 May 19:19:24 19:21:37 15° 268° (W) 19:23:52 145.980 - 146.000
CUTE-I 26 May 19:19:40 19:24:04 26° 266° (W) 19:28:30 437.470
XW-2C 26 May 19:20:38 19:22:41 14° 269° (W) 19:24:45 145.795 - 145.815
KAITUO 1B 26 May 19:27:06 19:29:14 15° 269° (W) 19:31:23 145.475/437.950
HO-68 26 May 19:40:55 19:48:03 69° 256° (WSW) 19:55:16 435.675
Oscar 11 26 May 19:41:10 19:44:01 17° 64° (ENE) 19:46:53 .
STRAND 1 26 May 19:42:10 19:46:51 34° 97° (E) 19:51:30 437.568
XW-2A 26 May 19:47:16 19:50:30 48° 260° (W) 19:53:48 145.665 - 145.685
Tancredo 1 26 May 19:50:01 19:52:26 21° 136° (SE) 19:54:52 437.200
CUTE 1.7 + AOD 2 26 May 19:54:58 19:59:03 44° 262° (W) 20:03:11 437.475
PCSat 26 May 19:57:27 20:02:52 71° 303° (WNW) 20:08:19 145.827
AO-73 26 May 20:06:32 20:10:24 36° 70° (ENE) 20:14:23 145.935
AAUSAT CUBESAT 2 26 May 20:08:09 20:12:20 81° 77° (ENE) 20:16:33 437.432
ZACube-1 26 May 20:20:14 20:24:22 57° 74° (ENE) 20:28:37 437.345
ISS 26 May 20:21:02 20:23:56 28° 138° (SE) 20:26:49 437.550
DELFI C3 26 May 20:29:01 20:31:13 14° 64° (ENE) 20:33:24 145.870
CUBEBUG 2 26 May 20:33:29 20:37:16 34° 263° (W) 20:41:10 437.445
UWE-3 26 May 20:43:24 20:47:25 44° 262° (W) 20:51:32 435.000/436.395/437.385
SEEDS 26 May 20:45:20 20:48:30 20° 267° (W) 20:51:41 437.485
M-CUBED/EXP-1 PRIME 26 May 21:10:57 21:13:56 31° 103° (ESE) 21:16:51 437.505
Oscar 11 26 May 21:15:34 21:19:46 48° 261° (W) 21:24:01 .
STRAND 1 26 May 21:21:26 21:25:57 32° 294° (WNW) 21:30:27 437.568
Tancredo 1 26 May 21:25:01 21:28:01 48° 333° (NNW) 21:31:01 437.200
SO-50 26 May 21:31:36 21:34:23 16° 110° (ESE) 21:37:09 436.795
HO-68 26 May 21:34:54 21:37:03 11° 275° (W) 21:39:10 435.675
AO-73 26 May 21:43:36 21:46:46 20° 268° (W) 21:50:00 145.935
PCSat 26 May 21:44:06 21:47:16 15° 324° (NW) 21:50:26 145.827
ISS 26 May 21:57:10 22:00:19 43° 335° (NNW) 22:03:30 437.550
ZACube-1 26 May 21:59:01 22:01:03 13° 271° (W) 22:03:06 437.345
DELFI C3 26 May 22:01:41 22:05:34 50° 260° (W) 22:09:29 145.870
EO-88 26 May 22:03:35 22:07:13 64° 260° (W) 22:10:53 145.990 - 145.960
TIGRISAT 26 May 22:04:56 22:08:33 22° 94° (E) 22:12:11 435.000
UNISAT 6 26 May 22:36:04 22:40:33 50° 99° (E) 22:45:05 437.425
PRISM 26 May 22:41:37 22:45:41 69° 102° (ESE) 22:49:42 437.425
FO-29 26 May 22:42:17 22:48:40 60° 101° (ESE) 22:55:48 435.910
M-CUBED/EXP-1 PRIME 26 May 22:46:12 22:48:10 15° 300° (WNW) 22:50:07 437.505
LO-87 26 May 22:46:30 22:49:56 50° 74° (ENE) 22:53:24 145.935 - 145.965
Tancredo 1 26 May 23:02:00 23:04:17 19° 352° (N) 23:06:35 437.200
ESTCUBE 1 26 May 23:07:28 23:11:54 55° 73° (ENE) 23:16:21 437.505/2401.250
SO-50 26 May 23:09:48 23:14:21 63° 307° (NW) 23:18:53 436.795
ISS 26 May 23:34:54 23:37:25 20° 355° (N) 23:39:57 437.550
TIGRISAT 26 May 23:41:03 23:45:20 39° 290° (WNW) 23:49:40 435.000
NANOSAT C BR1 26 May 23:49:02 23:51:59 18° 93° (E) 23:54:55 145.865
POLYITAN 1 26 May 23:53:24 23:56:47 22° 94° (E) 00:00:09 437.675
RS-15 26 May 23:54:52 23:56:04 10° 90° (E) 23:57:19 29.354- 29.394
SPROUT 26 May 23:55:35 23:59:36 45° 72° (ENE) 00:03:40 437.525
DUCHIFAT 1 26 May 23:59:24 00:02:38 21° 94° (E) 00:05:52 145.980
50 SAT 26 May 23:59:41 00:02:25 22° 69° (ENE) 00:05:09 437.505
QB50P2 27 May 00:01:48 00:05:34 29° 96° (E) 00:09:19 145.880/145.840
VELOX 1 27 May 00:02:34 00:06:53 55° 73° (ENE) 00:11:13 145.980
AIST 2D 27 May 00:06:53 00:10:28 67° 102° (ESE) 00:13:59 435.315
UNISAT 6 27 May 00:13:41 00:16:54 19° 296° (WNW) 00:20:09 437.425
PRISM 27 May 00:19:00 00:20:24 12° 299° (WNW) 00:21:48 437.425
LO-87 27 May 00:23:20 00:23:41 10° 270° (W) 00:24:02 145.935 - 145.965
FO-29 27 May 00:28:10 00:33:23 27° 296° (WNW) 00:39:06 435.910
UKube-1 27 May 00:29:59 00:33:38 28° 67° (ENE) 00:37:19 .
DX 1 27 May 00:37:32 00:41:43 47° 71° (ENE) 00:45:54 434.975-435.025
Tancredo 1 27 May 00:38:21 00:40:48 21° 12° (NNE) 00:43:15 437.200
EO-79 27 May 00:38:32 00:42:48 70° 102° (ESE) 00:47:03 145.935-145.965
ESTCUBE 1 27 May 00:46:19 00:49:02 16° 269° (W) 00:51:45 437.505/2401.250
YUBILEINY 27 May 00:48:25 00:56:34 47° 88° (E) 01:04:48 435.215
SO-50 27 May 00:53:39 00:55:42 13° 328° (NNW) 00:57:47 436.795
ISS 27 May 01:11:52 01:14:41 25° 15° (NNE) 01:17:29 437.550
Oscar 19 27 May 01:15:50 01:19:16 18° 91° (E) 01:22:41 437.125/150
NANOSAT C BR1 27 May 01:23:51 01:27:51 41° 289° (WNW) 01:31:52 145.865
POLYITAN 1 27 May 01:28:46 01:32:38 34° 290° (WNW) 01:36:30 437.675
50 SAT 27 May 01:32:28 01:35:12 22° 265° (W) 01:37:57 437.505
SPROUT 27 May 01:33:02 01:35:45 16° 268° (W) 01:38:28 437.525
DUCHIFAT 1 27 May 01:34:31 01:38:24 35° 290° (WNW) 01:42:16 145.980
QB50P2 27 May 01:37:42 01:41:15 26° 293° (WNW) 01:44:47 145.880/145.840
VELOX 1 27 May 01:41:12 01:43:40 15° 269° (W) 01:46:08 145.980
BEESAT 27 May 01:45:29 01:48:43 19° 62° (ENE) 01:51:59 436.000
BUGSAT 1 27 May 01:51:16 01:55:24 73° 285° (WNW) 01:59:33 437.445
RS-15 27 May 01:53:54 02:05:27 55° 112° (ESE) 02:17:16 29.354- 29.394
UKube-1 27 May 02:05:53 02:09:36 28° 264° (W) 02:13:20 .
Tancredo 1 27 May 02:13:52 02:16:56 77° 31° (NNE) 02:19:59 437.200
DX 1 27 May 02:15:22 02:18:09 17° 268° (W) 02:20:56 434.975-435.025
EO-79 27 May 02:16:12 02:17:59 12° 299° (WNW) 02:19:47 145.935-145.965
Gurwin Techsat 1B 27 May 02:33:55 02:39:10 57° 101° (E) 02:44:23 435.225
YUBILEINY 27 May 02:45:22 02:53:27 41° 289° (WNW) 03:01:39 435.215
ITUPSAT 1 27 May 02:47:58 02:52:42 69° 73° (ENE) 02:57:28 437.325
ISS 27 May 02:48:10 02:51:29 82° 210° (SSW) 02:54:45 437.550
Oscar 19 27 May 02:53:54 02:58:59 59° 288° (WNW) 03:04:01 437.125/150
MOZHAYETS 4 27 May 03:00:41 03:05:07 51° 72° (ENE) 03:09:37
PCSat 27 May 03:01:29 03:05:43 22° 43° (NE) 03:09:56 145.827
BEESAT 27 May 03:21:26 03:26:04 55° 259° (W) 03:30:47 436.000
CUBESAT XI-V 27 May 03:48:04 03:52:09 30° 68° (ENE) 03:56:15 437.345
Tancredo 1 27 May 03:50:51 03:52:17 13° 228° (SW) 03:53:44 437.200
O/OREOS (USA 219) 27 May 03:51:09 03:55:34 49° 108° (ESE) 04:00:00 437.305
KKS-1 27 May 03:51:55 03:55:40 28° 67° (ENE) 03:59:26 437.445
ITAMSAT 1 27 May 03:56:08 04:01:10 46° 99° (E) 04:06:10 435.822/435.867
RS-15 27 May 04:06:11 04:18:05 55° 316° (NW) 04:30:13 29.354- 29.394
AO-7 27 May 04:09:29 04:17:39 54° 102° (ESE) 04:25:46 .
Gurwin Techsat 1B 27 May 04:14:47 04:18:41 21° 298° (WNW) 04:22:35 435.225
STARS 27 May 04:21:54 04:25:27 25° 66° (ENE) 04:29:01 437.465
ISS 27 May 04:26:44 04:27:27 11° 230° (SW) 04:28:09 437.550
ITUPSAT 1 27 May 04:28:42 04:31:01 13° 270° (W) 04:33:20 437.325
MOZHAYETS 4 27 May 04:39:32 04:42:34 17° 269° (W) 04:45:37
PCSat 27 May 04:44:14 04:49:39 70° 243° (WSW) 04:55:01 145.827
AO-85 27 May 04:47:45 04:51:54 70° 122° (ESE) 04:55:53 145.980
BEESAT 2 27 May 05:20:48 05:23:36 19° 112° (ESE) 05:26:26 435.950
CUBESAT XI-V 27 May 05:25:19 05:29:27 30° 265° (W) 05:33:37 437.345
KKS-1 27 May 05:28:16 05:32:08 29° 264° (W) 05:36:01 437.445
O/OREOS (USA 219) 27 May 05:31:49 05:35:15 20° 306° (NW) 05:38:41 437.305
ITAMSAT 1 27 May 05:36:11 05:40:21 25° 297° (WNW) 05:44:30 435.822/435.867
BEESAT 3 27 May 05:38:32 05:42:29 79° 123° (ESE) 05:46:31 437.485
DOVE 4 27 May 05:55:30 05:58:58 25° 95° (E) 06:02:29 437.250
LilacSat-2 27 May 05:55:57 05:57:56 13° 91° (E) 05:59:54 437.200
CUTE-I 27 May 05:55:58 05:58:56 15° 89° (E) 06:01:53 437.470
STARS 27 May 05:57:45 06:01:39 32° 263° (W) 06:05:36 437.465
SO-50 27 May 06:00:03 06:03:43 24° 42° (NE) 06:07:22 436.795
AO-7 27 May 06:02:38 06:10:09 39° 302° (WNW) 06:17:40 .
